Satellite-Ground Cal/Val Site Overpasses Predictions

Prediction of Satellite NPP Overpassing Cal/Val Site: Antarctic Dome C

Ground Cal/Val Site Location: Latitude: -75.10, Longitude: 123.35; Satellite-Ground Site NADIR distance within 100 km.

Table of predicted overpasses for the next 14.0 days since TLE Epoch: 8/5/2023
Interval Starting Time Ending Time Minimum Distance Time Minimum Distance (km)
1 08/05/2023 14:50:06 08/05/2023 14:50:35 08/05/2023 14:50:20 17.43
2 08/07/2023 07:32:55 08/07/2023 07:33:24 08/07/2023 07:33:10 4.21
3 08/10/2023 14:56:21 08/10/2023 14:56:49 08/10/2023 14:56:35 19.39
4 08/11/2023 14:37:39 08/11/2023 14:37:53 08/11/2023 14:37:46 87.58
5 08/12/2023 07:39:10 08/12/2023 07:39:37 08/12/2023 07:39:24 39.18
6 08/13/2023 07:20:24 08/13/2023 07:20:45 08/13/2023 07:20:34 70.79
7 08/15/2023 15:02:38 08/15/2023 15:03:02 08/15/2023 15:02:50 56.66
8 08/16/2023 14:43:47 08/16/2023 14:44:12 08/16/2023 14:44:00 52.53
9 08/17/2023 07:45:29 08/17/2023 07:45:48 08/17/2023 07:45:39 74.58
